Location: Newark
(45.8667°N, 9.7333°E)
Time: 17:43:19
(UTC+00:00)

Transit 4A - Pass Details

Date: 29 January 2020
Orbit: 872 x 973 km, 66.8° (Epoch: 22 February)

Event Time Altitude Azimuth Distance (km) Brightness Sun altitude
Rises 06:41:41 0° 251° (WSW) 3,528 10.5 -1.7°
Reaches altitude 10° 06:44:37 10° 264° (W) 2,574 9.7 -1.3°
Maximum altitude 06:49:34 27° 320° (NW) 1,661 8.8 -0.5°
Drops below altitude 10° 06:54:28 10° 17° (NNE) 2,542 10.1 0.3°
Sets 06:57:22 0° 30° (NNE) 3,476 10.9 0.7°
